Regional Weather Roundup
Issued by NWS

Home | Current Version | Previous Version | Graphics & Text | Print | Product List | Glossary Off
Versions: 1 2 3 4 5 6 7 8 9 10 11 12 13 14 15 16 17 18 19 20 21 22 23 24 25 26 27 28 29 30 31 32 33 34 35 36 37 38 39 40 41 42 43 44 45 46 47 48 49 50

000
ASUS43 KMKX 201710
RWRWI

WISCONSIN REGIONAL WEATHER ROUNDUP
NATIONAL WEATHER SERVICE MILWAUKEE/SULLIVAN WI
1100 AM CST FRI JAN 20 2017

NOTE: "FAIR" INDICATES FEW OR NO CLOUDS BELOW 12,000 FEET WITH NO
SIGNIFICANT WEATHER AND/OR OBSTRUCTIONS TO VISIBILITY.

WIZ001-002-006>008-014>016-023>028-201800-
NORTHWEST WISCONSIN

CITY           SKY/WX    TMP DP  RH WIND       PRES   REMARKS
SUPERIOR ARPT  DRZL/FOG  35  35 100 E9        29.66F VSB 1   WCI  27
ASHLAND        CLOUDY    37  32  82 NE6       29.68S WCI  32
HAYWARD        LGT RAIN  37  35  92 SE5       29.64F WCI  33
SIREN          DRIZZLE   36  36  97 SE6       29.62F WCI  32
CUMBERLAND     CLOUDY    34  32  93 E7        29.62F FOG     WCI  28
RICE LAKE      CLOUDY    35  35  98 E6        29.64F FOG     WCI  30
CHETEK         CLOUDY    35  35  99 SE5       29.63F FOG     WCI  31
LADYSMITH      RAIN      37  35  95 E5        29.66F WCI  33
EAU CLAIRE     CLOUDY    35  35 100 E7        29.62F FOG     WCI  29
MENOMONIE        N/A    N/A N/A N/A MISG        N/A
NEW RICHMOND   CLOUDY    35  35 100 SE6       29.62S WCI  30
OSCEOLA        CLOUDY    37  37 100 SE9       29.64S WCI  30
$$

WIZ003>005-009-010-017-018-201800-
NORTH CENTRAL WISCONSIN

CITY           SKY/WX    TMP DP  RH WIND       PRES   REMARKS
MANITOWISH WTR CLOUDY    33  33 100 SE3       29.65F
ARBOR VITAE    LGT RAIN  37  35  94 SE5       29.66S WCI  33
WOODRUFF       LGT RAIN  37  35  94 SE5       29.66S WCI  33
RHINELANDER    CLOUDY    35  34  96 E6        29.66F FOG     WCI  30
EAGLE RIVER    CLOUDY    35  33  92 S3        29.67S
LAND O LAKES   CLOUDY    35  32  87 CALM      29.68S
PHILLIPS       CLOUDY    35  35  99 CALM      29.64F
TOMAHAWK       DRIZZLE   35  34  96 CALM      29.66F
MEDFORD        DRIZZLE   35  34  96 E5        29.64S WCI  31
MERRILL        CLOUDY    36  35  99 E3          N/A  FOG
$$

WIZ029-030-035-036-043>047-201800-
CENTRAL WISCONSIN

CITY           SKY/WX    TMP DP  RH WIND       PRES   REMARKS
WAUSAU         CLOUDY    34  33  96 E6        29.65F FOG     WCI  29
MOSINEE        CLOUDY    30  30 100 E8        29.67F FOG     WCI  23
MARSHFIELD     LGT RAIN  34  33  96 E6        29.64F FOG     WCI  29
STEVENS POINT  CLOUDY    32  32 100 E7        29.67F FOG     WCI  26
WAUPACA        CLOUDY    37  36  95 CALM      29.68F FOG
WAUTOMA        LGT RAIN  35  34  96 NE7       29.68S FOG     WCI  29
WISC RAPIDS    CLOUDY    35  34  96 E9        29.67F WCI  28
CAMP DOUGLAS   CLOUDY    36  36 100 E8        29.64F FOG     WCI  29
$$

WIZ011>013-019>022-031-037>040-048>050-201800-
NORTHEAST WISCONSIN

CITY           SKY/WX    TMP DP  RH WIND       PRES   REMARKS
ANTIGO         CLOUDY    33  33 100 E5        29.67F WCI  29
SHAWANO        CLOUDY    35  34  95 NE5       29.71S FOG     WCI  31
OCONTO         CLOUDY    34  34  99 NE6       29.71F WCI  29
STURGEON BAY   FOG       35  34  96 CALM      29.71F VSB 1/4
GREEN BAY      LGT RAIN  35  35 100 NE10      29.69F FOG     WCI  27
MANITOWOC      CLOUDY    36  35  96 NE6       29.69F FOG     WCI  31
APPLETON       DRIZZLE   34  34 100 NE7       29.68S FOG     WCI  28
CLINTONVILLE   DRIZZLE   34  34 100 NE5       29.69F WCI  30
OSHKOSH        CLOUDY    34  33  96 NE8       29.67F FOG     WCI  27
$$

WIZ032>034-041-042-053>061-201800-
SOUTHWEST WISCONSIN

CITY           SKY/WX    TMP DP  RH WIND       PRES   REMARKS
LA CROSSE      CLOUDY    39  36  89 E5        29.64S
SPARTA         CLOUDY    35  35 100 E6        29.65S FOG     WCI  30
VIROQUA        CLOUDY    35  35 100 SE8       29.63S VSB 1   WCI  28
BOSCOBEL       CLOUDY    39  37  92 CALM      29.65S FOG
PRAIRIE DU CHI CLOUDY    37  36  96 CALM      29.64F FOG
PLATTEVILLE    CLOUDY    37  37 100 E7        29.64F VSB 1/2 WCI  32
$$

WIZ056-057-062-063-064-067-068-201800-
SOUTH CENTRAL WISCONSIN

CITY           SKY/WX    TMP DP  RH WIND       PRES   REMARKS
REEDSBURG      CLOUDY    35  35 100 E6        29.64F FOG     WCI  30
BARABOO/DELLS  CLOUDY    35  34  99 E7        29.64F FOG     WCI  29
LONE ROCK      CLOUDY    37  35  92 E7        29.66R FOG     WCI  32
MINERAL POINT  FOG       37  37 100 E6        29.62F VSB 1/4 WCI  33
MADISON        FOG       36  35  96 E6        29.67R VSB 1   WCI  31
MIDDLETON      CLOUDY    37  37 100 E6        29.66R WCI  33
WATERTOWN      CLOUDY    37  37 100 E5        29.66S FOG     WCI  33
MONROE         FOG       36  36 100 E3        29.63F VSB<1/4
JANESVILLE     CLOUDY    39  39 100 SE6       29.66R FOG     WCI  35
$$

WIZ051-052-058>065-066-070>072-201800-
SOUTHEAST WISCONSIN

CITY           SKY/WX    TMP DP  RH WIND       PRES   REMARKS
MILWAUKEE      CLOUDY    39  37  92 E8        29.68R FOG     WCI  33
WAUKESHA       CLOUDY    36  36 100 NE7       29.68R FOG     WCI  30
MILWAUKEE/TIMM CLOUDY    37  34  87 E7        29.69R FOG     WCI  32
RACINE         FOG       39  37  92 E6        29.69S VSB 3/4 WCI  35
KENOSHA        FOG       38  37  97 NE8       29.66F VSB 3/4 WCI  32
FOND DU LAC    CLOUDY    37  33  85 NE5       29.67F FOG     WCI  33
SHEBOYGAN      CLOUDY    36  35  96 NE10      29.68F FOG     WCI  28
WEST BEND      CLOUDY    36  36 100 E6        29.68R FOG     WCI  31
JUNEAU         CLOUDY    36  35  97 E3        29.68S FOG
$$

LSZ147-162-201800-
LAKE SUPERIOR

STATION/POSITION TIME  TEMP    WIND        PRES    WAVE
                       AIR SEA DIR/SP/G            HT/PER
                 (UTC) (F)     (DEG/KT/KT) (MB)    (FT/S)
DEVILS ISLAND    1700   35     100/  5/  6 1006.0R
PORT WING        1640   35      30/  9/ 11 1005.1F
SAXON HARBOR     1630   35      50/  2/  4 1005.1S
$$

LMZ867-665-643>646-201800-
LAKE MICHIGAN

STATION/POSITION TIME  TEMP    WIND        PRES    WAVE
                       AIR SEA DIR/SP/G            HT/PER
                 (UTC) (F)     (DEG/KT/KT) (MB)    (FT/S)
NORTHPORT PIER   1640   34      60/  4/  6 1006.4F
SISTER BAY       1650   37        CALM       N/A
KEWAUNEE LAKESHO 1648   35      30/  9/ 12 1005.4S
SHEBOYGAN LAKESH 1700   35      20/  9/  9 1005.5F
PORT WASHINGTON  1640   37      40/  6/  8 1006.4R
KENOSHA   LAKESH 1700   36      30/  7/  7 1004.7
$$

TC  - TEMPERATURE IN CELSIUS
VSB - VISIBILITY IN STATUTE MILES
WCI - WIND CHILL INDEX
HX  - HEAT INDEX





USA.gov is the U.S. government's official web portal to all federal, state and local government web resources and services.